Port Heiden, AK

10:02 AM AKDT on July 24, 2017 (GMT -0800)
Port Heiden

Weather History for PAPH - June, 2013

Change the Weather History Date:

Tuesday, June 11, 2013

  Actual Average Record
Temperature  
Mean Temperature 40 °F -  
Max Temperature 44 °F 51 °F 55 °F (2004)
Min Temperature 35 °F 39 °F 19 °F (2007)
Degree Days  
Heating Degree Days 26    
Moisture  
Dew Point 32 °F    
Average Humidity 75    
Maximum Humidity 87    
Minimum Humidity 54    
Precipitation  
Precipitation 0.00 in - - ()
Sea Level Pressure  
Sea Level Pressure 30.28 in    
Wind  
Wind Speed 8 mph (West)    
Max Wind Speed 14 mph    
Max Gust Speed -    
Visibility 9 miles    
Events      
Averages and records for this station are not official NWS values.
T = Trace of Precipitation, MM = Missing Value Source: NWS Daily Summary

Daily Weather History Graph

Daily Weather History Graph

Search for Another Location

Airport or City:

Trip Planner

Search our weather history database for the weather conditions in past years. The results will help you decide how hot, cold, wet, or windy it might be!

Date:

Astronomy

Jun. 11, 2013 Rise Set
Actual Time 5:41 AM AKDT 11:27 PM AKDT
Civil Twilight 4:34 AM AKDT 12:34 AM AKDT
Nautical Twilight 3:06 AM AKDT 2:01 AM AKDT
Astronomical Twilight Sun does not set Sun does not set
Moon 9:06 AM AKDT (6/11) 12:32 AM AKDT (6/11)
Length of Visible Light 19h 59m
Length of Day
17h 46m
Waxing Crescent, 9% of the Moon is Illuminated
Jun 11
Waxing Crescent
Jun 16
First Quarter
Jun 23
Full
Jun 29
Last Quarter
Jul 7
New

Hourly Weather History & Observations

Time (AKDT) Temp. Windchill Dew Point Humidity Pressure Visibility Wind Dir Wind Speed Gust Speed Precip Events Conditions
12:16 AM 37.4 °F 32.1 °F 30.2 °F 75% 30.45 in 10.0 mi WSW 6.9 mph - N/A   Overcast
12:36 AM 37.4 °F 32.1 °F 30.2 °F 75% 30.45 in 10.0 mi SW 6.9 mph - N/A   Overcast
12:56 AM 37.4 °F 32.1 °F 32.0 °F 81% 30.45 in 8.0 mi SW 6.9 mph - N/A   Overcast
1:16 AM 37.4 °F 31.4 °F 32.0 °F 81% 30.45 in 3.0 mi WSW 8.1 mph - N/A   Overcast
1:36 AM 37.4 °F 30.3 °F 32.0 °F 81% 30.45 in 8.0 mi WSW 10.4 mph - N/A   Overcast
1:56 AM 37.4 °F 30.8 °F 30.2 °F 75% 30.44 in 4.0 mi WSW 9.2 mph - N/A   Overcast
2:16 AM 37.4 °F 31.4 °F 32.0 °F 81% 30.45 in 2.5 mi WSW 8.1 mph - N/A   Overcast
2:36 AM 35.6 °F 28.6 °F 30.2 °F 81% 30.44 in 10.0 mi SW 9.2 mph - N/A   Overcast
2:56 AM 35.6 °F 28.0 °F 32.0 °F 87% 30.43 in 5.0 mi West 10.4 mph - N/A   Overcast
3:16 AM 35.6 °F 28.6 °F 32.0 °F 87% 30.43 in 7.0 mi WSW 9.2 mph - N/A   Overcast
3:36 AM 35.6 °F 28.6 °F 30.2 °F 81% 30.42 in 5.0 mi SW 9.2 mph - N/A   Overcast
3:56 AM 35.6 °F 30.7 °F 30.2 °F 81% 30.42 in 8.0 mi SW 5.8 mph - N/A   Overcast
4:16 AM 35.6 °F 29.2 °F 30.2 °F 81% 30.41 in 5.0 mi WSW 8.1 mph - N/A   Overcast
4:36 AM 35.6 °F 30.7 °F 32.0 °F 87% 30.41 in 5.0 mi WSW 5.8 mph - N/A   Overcast
4:56 AM 35.6 °F 29.2 °F 32.0 °F 87% 30.41 in 8.0 mi SW 8.1 mph - N/A   Overcast
5:16 AM 35.6 °F 28.6 °F 30.2 °F 81% 30.40 in 4.0 mi West 9.2 mph - N/A   Overcast
5:36 AM 35.6 °F 29.2 °F 30.2 °F 81% 30.40 in 4.0 mi West 8.1 mph - N/A   Overcast
5:56 AM 35.6 °F 28.6 °F 30.2 °F 81% 30.39 in 2.5 mi WSW 9.2 mph - N/A   Overcast
6:16 AM 35.6 °F 31.7 °F 30.2 °F 81% 30.39 in 9.0 mi WSW 4.6 mph - N/A   Overcast
6:36 AM 35.6 °F 29.9 °F 30.2 °F 81% 30.38 in 7.0 mi West 6.9 mph - N/A   Overcast
6:56 AM 35.6 °F 31.7 °F 30.2 °F 81% 30.38 in 9.0 mi WSW 4.6 mph - N/A   Overcast
7:16 AM 35.6 °F 29.2 °F 30.2 °F 81% 30.38 in 10.0 mi SW 8.1 mph - N/A   Overcast
7:36 AM 35.6 °F 29.9 °F 30.2 °F 81% 30.38 in 8.0 mi West 6.9 mph - N/A   Overcast
7:56 AM 35.6 °F 31.7 °F 32.0 °F 87% 30.37 in 5.0 mi West 4.6 mph - N/A   Overcast
8:16 AM 35.6 °F 29.2 °F 32.0 °F 87% 30.37 in 4.0 mi WSW 8.1 mph - N/A   Overcast
8:36 AM 37.4 °F 31.4 °F 30.2 °F 75% 30.37 in 8.0 mi West 8.1 mph - N/A   Overcast
8:56 AM 37.4 °F 31.4 °F 30.2 °F 75% 30.36 in 10.0 mi SW 8.1 mph - N/A   Overcast
9:16 AM 37.4 °F 32.1 °F 30.2 °F 75% 30.35 in 6.0 mi WSW 6.9 mph - N/A   Overcast
9:36 AM 37.4 °F 32.1 °F 32.0 °F 81% 30.35 in 8.0 mi WSW 6.9 mph - N/A   Overcast
9:56 AM 37.4 °F 32.1 °F 33.8 °F 87% 30.34 in 10.0 mi WSW 6.9 mph - N/A   Overcast
10:16 AM 37.4 °F 32.1 °F 30.2 °F 75% 30.34 in 10.0 mi SW 6.9 mph - N/A   Overcast
10:36 AM 37.4 °F 32.1 °F 30.2 °F 75% 30.33 in 10.0 mi SW 6.9 mph - N/A   Overcast
10:56 AM 37.4 °F 32.8 °F 30.2 °F 75% 30.32 in 10.0 mi WSW 5.8 mph - N/A   Overcast
11:16 AM 37.4 °F 32.1 °F 30.2 °F 75% 30.32 in 10.0 mi WSW 6.9 mph - N/A   Overcast
11:36 AM 37.4 °F 32.8 °F 30.2 °F 75% 30.31 in 10.0 mi WSW 5.8 mph - N/A   Overcast
11:56 AM 37.4 °F 32.8 °F 32.0 °F 81% 30.31 in 10.0 mi WSW 5.8 mph - N/A   Overcast
12:16 PM 37.4 °F 32.8 °F 32.0 °F 81% 30.30 in 10.0 mi West 5.8 mph - N/A   Overcast
12:36 PM 39.2 °F 33.6 °F 32.0 °F 75% 30.30 in 10.0 mi WSW 8.1 mph - N/A   Overcast
12:56 PM 39.2 °F 34.2 °F 32.0 °F 75% 30.30 in 10.0 mi WNW 6.9 mph - N/A   Overcast
1:16 PM 39.2 °F 37.0 °F 32.0 °F 75% 30.29 in 10.0 mi West 3.5 mph - N/A   Overcast
1:36 PM 39.2 °F 37.0 °F 32.0 °F 75% 30.28 in 10.0 mi WSW 3.5 mph - N/A   Overcast
1:56 PM 42.8 °F 38.6 °F 30.2 °F 61% 30.28 in 10.0 mi WNW 6.9 mph - N/A   Overcast
2:16 PM 42.8 °F 38.0 °F 32.0 °F 66% 30.27 in 10.0 mi WSW 8.1 mph - N/A   Overcast
2:36 PM 42.8 °F 38.6 °F 32.0 °F 66% 30.26 in 10.0 mi West 6.9 mph - N/A   Overcast
2:56 PM 42.8 °F 38.0 °F 32.0 °F 66% 30.25 in 10.0 mi WNW 8.1 mph - N/A   Mostly Cloudy
3:16 PM 42.8 °F 38.0 °F 32.0 °F 66% 30.23 in 10.0 mi West 8.1 mph - N/A   Partly Cloudy
3:36 PM 44.6 °F 40.2 °F 32.0 °F 61% 30.22 in 10.0 mi West 8.1 mph - N/A   Clear
3:56 PM 44.6 °F 39.7 °F 33.8 °F 66% 30.20 in 10.0 mi NW 9.2 mph - N/A   Clear
4:16 PM 42.8 °F 37.0 °F 33.8 °F 70% 30.20 in 10.0 mi NW 10.4 mph - N/A   Clear
4:36 PM 42.8 °F 38.0 °F 33.8 °F 70% 30.19 in 10.0 mi NW 8.1 mph - N/A   Clear
4:56 PM 44.6 °F 39.2 °F 33.8 °F 66% 30.19 in 10.0 mi NNW 10.4 mph - N/A   Clear
5:16 PM 44.6 °F 39.7 °F 33.8 °F 66% 30.18 in 10.0 mi NNW 9.2 mph - N/A   Clear
5:36 PM 44.6 °F 39.2 °F 33.8 °F 66% 30.17 in 10.0 mi NNW 10.4 mph - N/A   Clear
5:56 PM 44.6 °F 39.2 °F 33.8 °F 66% 30.16 in 10.0 mi NNW 10.4 mph - N/A   Clear
6:16 PM 44.6 °F 39.2 °F 33.8 °F 66% 30.15 in 10.0 mi North 10.4 mph - N/A   Clear
6:36 PM 44.6 °F 38.8 °F 33.8 °F 66% 30.14 in 10.0 mi North 11.5 mph - N/A   Clear
6:56 PM 44.6 °F 39.2 °F 33.8 °F 66% 30.14 in 10.0 mi North 10.4 mph - N/A   Clear
7:16 PM 44.6 °F 38.8 °F 33.8 °F 66% 30.13 in 10.0 mi North 11.5 mph - N/A   Clear
7:36 PM 44.6 °F 38.1 °F 33.8 °F 66% 30.12 in 10.0 mi North 13.8 mph - N/A   Clear
7:56 PM 44.6 °F 38.4 °F 35.6 °F 71% 30.11 in 10.0 mi North 12.7 mph - N/A   Clear
8:16 PM 44.6 °F 39.2 °F 33.8 °F 66% 30.10 in 10.0 mi North 10.4 mph - N/A   Clear
8:36 PM 44.6 °F 38.8 °F 33.8 °F 66% 30.09 in 10.0 mi North 11.5 mph - N/A   Clear
8:56 PM 44.6 °F 39.7 °F 33.8 °F 66% 30.08 in 10.0 mi North 9.2 mph - N/A   Clear
9:16 PM 44.6 °F 39.2 °F 35.6 °F 71% 30.08 in 10.0 mi North 10.4 mph - N/A   Clear
9:36 PM 42.8 °F 37.5 °F 33.8 °F 70% 30.08 in 10.0 mi NNW 9.2 mph - N/A   Clear
9:56 PM 42.8 °F 37.5 °F 33.8 °F 70% 30.07 in 10.0 mi North 9.2 mph - N/A   Clear
10:16 PM 41.0 °F 35.8 °F 33.8 °F 76% 30.07 in 10.0 mi North 8.1 mph - N/A   Clear
10:36 PM 39.2 °F 32.0 °F 33.8 °F 81% 30.06 in 10.0 mi North 11.5 mph - N/A   Clear
10:56 PM 39.2 °F 32.5 °F 33.8 °F 81% 30.06 in 10.0 mi North 10.4 mph - N/A   Clear
11:16 PM 37.4 °F 31.4 °F 32.0 °F 81% 30.08 in 10.0 mi North 8.1 mph - N/A   Clear
11:36 PM 37.4 °F 30.3 °F 30.2 °F 75% 30.07 in 10.0 mi NNE 10.4 mph - N/A   Clear
11:56 PM 37.4 °F 30.8 °F 30.2 °F 75% 30.07 in 10.0 mi NNE 9.2 mph - N/A   Clear